Theta_e
328 328 328 330 324 318 320 319 313 316 324 322 313 313 315 313 315 316 313 316 324 329 335 338 337 342 345 343 343 345 348 349 350 350 350 350 351 352 353 357 358 358 358 355 354 353 354 355 355 356 357 357 359 362 364 365 365 364 364 363 363 363 363
327 328 328 330 327 324 320 313 315 322 325 322 316 312 313 314 315 315 313 314 319 319 326 336 337 343 347 344 344 347 348 349 350 352 352 351 353 352 352 356 358 357 358 356 354 354 354 356 356 356 357 357 359 360 363 364 365 365 365 364 364 363 363
327 328 326 325 326 327 323 318 323 323 314 312 313 311 312 314 314 314 313 315 317 317 323 332 333 340 348 345 343 347 348 347 348 350 353 354 353 353 352 353 355 356 357 356 354 353 354 356 356 356 356 357 358 360 363 364 364 366 365 365 364 363 363
327 327 323 318 319 325 325 323 325 323 316 313 313 311 312 314 315 314 315 315 316 325 337 337 335 338 343 345 345 345 345 345 345 347 351 353 353 353 352 351 353 354 354 355 354 353 354 356 356 357 357 357 358 359 362 364 365 365 366 365 365 364 363
324 321 322 320 320 322 320 318 317 316 318 317 316 314 312 313 314 314 316 316 316 333 349 344 344 344 338 342 346 345 345 344 343 347 351 351 352 352 351 349 351 353 354 354 353 353 355 357 357 357 357 357 358 359 361 363 365 365 366 366 365 364 364
316 319 327 327 325 325 321 318 316 316 317 314 312 314 313 311 311 311 315 317 320 338 345 340 350 352 341 341 345 344 345 343 343 347 350 350 351 351 350 349 349 351 356 356 354 355 356 357 359 357 357 358 357 359 360 362 365 366 366 367 366 365 365
320 325 329 328 326 328 326 323 323 322 320 313 309 312 315 312 310 312 314 315 324 342 347 342 346 353 348 343 345 346 343 341 345 348 349 350 351 350 349 348 349 352 356 356 355 356 356 357 358 358 357 358 357 359 360 361 364 366 366 367 366 365 364
326 328 329 328 328 328 324 323 325 324 321 317 314 319 323 316 310 312 314 313 321 335 351 356 352 355 353 342 342 345 341 340 343 347 351 351 352 353 352 350 352 355 356 357 359 360 359 357 358 359 358 358 358 358 359 361 362 365 366 367 367 366 365
319 322 324 324 323 324 324 324 325 324 324 322 319 319 321 317 313 314 314 315 324 336 343 346 344 347 350 345 344 343 344 343 340 345 353 353 353 355 354 352 353 356 357 358 361 363 361 357 358 359 358 358 358 357 358 359 361 363 365 366 367 367 366
315 315 317 319 320 321 323 325 325 325 324 322 319 313 311 315 319 318 315 316 329 344 338 331 333 337 341 348 348 343 348 350 342 349 356 354 356 357 355 355 355 357 361 361 363 366 362 359 360 359 359 359 358 358 358 358 359 362 364 365 367 367 367
317 318 322 329 329 321 318 322 324 325 327 323 321 314 309 314 318 318 323 326 327 337 340 333 333 331 335 352 351 342 357 364 357 362 360 355 358 358 353 355 357 360 365 365 366 368 363 360 361 360 360 360 359 358 357 357 358 361 363 365 367 368 368
324 330 332 332 332 323 318 321 322 324 328 325 320 314 314 319 314 311 328 337 327 334 346 341 341 337 337 357 360 348 361 377 373 370 362 355 357 356 353 355 359 363 366 367 366 366 362 360 361 363 361 360 360 358 357 357 358 361 363 365 367 368 368
325 330 330 329 331 327 325 324 323 324 326 323 320 317 322 327 317 312 326 336 332 342 346 341 350 354 347 356 365 356 355 365 369 367 362 357 354 353 354 357 363 365 365 366 366 364 363 360 360 363 363 361 361 359 358 358 358 360 363 365 367 368 368
324 326 327 329 327 325 325 325 325 326 326 325 323 323 325 328 325 324 330 337 341 346 337 329 339 354 355 355 359 354 347 357 369 368 362 359 356 355 356 358 362 365 363 364 366 366 367 364 361 362 364 363 362 360 359 359 359 360 362 364 366 367 367
322 324 326 327 325 324 322 323 328 327 325 325 323 324 326 324 325 330 331 333 340 346 341 332 332 344 351 348 348 351 352 360 370 368 362 362 363 365 366 364 363 365 365 366 369 371 372 368 363 362 364 364 363 362 362 360 359 360 362 364 365 366 367
320 325 326 325 325 325 319 318 325 326 323 323 322 324 326 324 324 328 326 324 333 344 345 337 335 339 341 342 348 356 358 357 359 363 367 370 371 372 373 368 367 370 374 374 374 375 374 368 363 363 365 365 364 363 363 361 360 361 361 363 364 365 366
319 324 325 324 322 318 315 318 325 327 328 328 327 326 329 327 324 324 324 330 343 353 347 339 337 335 330 335 347 353 355 355 354 356 361 364 366 371 373 369 367 371 376 378 377 375 372 367 365 365 365 366 365 364 363 362 361 360 362 363 363 364 366
319 323 325 326 322 316 317 325 329 330 330 331 329 329 330 330 329 327 331 341 350 349 345 343 345 340 333 340 349 351 353 362 364 360 360 360 357 362 367 368 368 370 375 379 376 372 370 367 365 365 366 366 365 365 364 363 361 360 361 362 362 363 365
320 324 325 322 320 322 328 333 334 331 332 331 330 331 332 331 331 334 339 344 350 350 347 347 348 350 351 353 352 349 351 363 371 367 365 368 364 360 363 366 366 367 372 378 378 372 368 368 366 365 366 366 366 365 364 363 361 359 360 362 362 363 365
320 321 322 321 324 331 336 338 335 333 337 336 330 329 335 338 338 344 350 351 353 355 351 351 353 354 354 352 349 346 344 352 359 356 354 360 361 359 363 367 368 368 367 368 373 372 368 367 368 366 365 367 366 366 366 364 362 360 360 362 362 362 365
321 318 317 321 324 327 332 335 334 337 341 344 340 334 338 348 350 352 358 356 353 354 353 354 357 357 357 360 357 347 339 338 343 345 344 345 345 350 362 367 365 363 362 362 364 367 368 368 368 367 367 367 367 366 367 366 363 362 363 364 363 363 365
323 319 317 321 319 319 330 336 335 339 339 343 353 349 345 355 358 354 357 358 358 362 362 360 361 360 359 363 362 352 342 340 338 335 334 333 331 337 354 367 368 361 361 364 364 365 368 368 368 369 367 368 368 367 367 367 366 365 366 367 365 364 366
324 318 317 319 316 320 338 344 339 340 338 341 349 342 340 358 364 352 353 358 359 363 365 367 370 368 362 362 361 354 346 344 341 339 339 336 334 332 336 349 362 364 361 361 363 366 369 368 368 369 368 368 369 368 368 369 367 366 368 369 367 366 368
328 324 320 319 319 330 346 343 338 341 341 343 341 329 336 361 364 352 353 357 357 360 363 366 370 368 364 364 359 351 348 348 346 346 346 345 347 352 345 337 341 353 360 365 366 367 368 369 369 369 368 369 369 368 369 369 367 367 369 370 369 368 369
327 327 324 321 324 340 352 344 340 341 340 340 335 333 350 366 357 352 355 354 354 358 359 362 365 362 359 358 354 352 355 357 353 352 356 359 362 367 365 354 342 341 348 360 369 368 369 370 369 369 369 369 368 368 369 369 368 368 369 370 370 370 371
326 327 331 331 333 343 349 344 340 338 337 338 339 347 359 358 350 352 355 352 356 359 359 362 362 358 356 356 356 356 357 358 357 355 362 374 377 376 376 371 361 352 351 358 365 369 371 370 369 370 370 369 368 369 369 369 369 368 370 372 372 372 374
326 324 328 335 339 341 337 339 347 348 346 350 356 356 352 347 348 353 354 355 359 360 360 361 359 357 358 357 356 355 353 354 355 353 353 357 364 373 380 374 366 368 374 373 369 370 372 371 370 370 370 369 369 370 370 370 370 370 372 373 373 373 373
335 330 328 334 344 347 340 345 356 356 353 356 358 351 346 348 350 352 355 357 357 357 358 357 354 355 356 354 353 353 351 350 351 351 351 349 348 355 364 362 357 361 369 369 367 370 373 373 372 372 371 371 371 370 371 371 371 373 375 374 373 373 372
340 341 339 340 347 350 345 346 350 347 344 346 348 346 350 352 351 352 353 352 352 353 353 351 350 352 352 351 351 350 348 348 347 347 348 347 346 348 352 352 350 350 353 354 354 361 370 373 374 373 372 371 371 372 372 373 374 375 375 373 372 371 369
341 345 346 342 344 345 341 342 342 339 340 343 346 348 350 348 346 346 346 346 348 349 347 347 348 348 348 348 348 347 346 346 345 346 345 344 344 345 347 349 349 348 351 353 350 353 365 373 375 376 375 373 372 373 374 374 375 374 372 370 369 367 366
342 347 350 346 343 343 341 340 340 340 340 340 341 343 343 342 341 340 340 342 343 343 343 343 343 342 343 345 346 347 346 344 343 344 344 342 343 345 345 346 346 347 356 366 358 349 353 362 367 369 368 368 370 372 373 373 372 370 368 366 364 363 362
343 346 347 344 341 340 338 338 338 338 339 337 336 337 337 336 336 335 335 337 337 338 340 341 339 338 339 340 343 345 345 345 345 344 342 341 343 343 343 344 344 345 352 361 356 346 345 349 353 355 355 355 359 364 367 369 367 365 363 362 360 359 358
343 345 344 342 342 340 338 338 337 334 334 334 333 333 333 332 332 332 331 331 330 332 334 336 338 338 336 336 338 339 340 342 345 344 342 341 341 342 343 343 344 344 345 346 346 345 345 346 348 351 351 350 351 354 358 361 361 360 358 357 356 355 354
344 346 343 342 343 342 339 339 338 335 332 331 331 331 330 330 330 330 330 329 328 328 329 331 333 334 334 335 335 334 335 339 343 345 343 340 339 340 341 341 341 344 344 343 343 344 345 345 347 349 349 348 347 348 351 354 354 353 353 353 353 352 352
344 343 341 342 343 341 338 335 335 335 332 330 330 329 328 327 328 328 328 328 328 327 326 327 329 330 330 330 330 332 333 335 339 343 345 343 340 340 340 340 341 342 344 345 344 344 344 345 348 349 349 348 347 346 348 349 349 349 350 350 350 350 350
340 339 339 340 340 338 335 333 331 332 332 330 328 328 328 327 326 327 327 327 327 327 325 325 327 328 327 326 326 329 332 333 336 338 340 342 342 341 341 342 342 343 344 344 343 342 343 345 347 348 347 347 347 347 347 347 348 349 349 349 349 349 349
338 337 337 337 336 335 333 330 328 330 330 330 330 330 329 329 327 327 327 327 326 325 325 324 325 326 327 326 326 327 330 333 334 333 333 334 337 340 343 344 343 343 344 344 343 344 345 346 350 351 350 349 349 350 349 349 350 350 349 349 349 348 347
Wind_Speed
15 11 12 14 11 5 4 7 9 8 6 5 2 3 4 3 5 5 4 5 3 3 5 10 12 8 14 17 16 14 13 16 17 15 16 15 14 14 14 13 14 16 16 16 20 25 27 30 34 36 38 39 39 38 38 39 39 39 40 40 39 39 39
18 14 11 14 14 8 4 6 7 3 3 5 2 2 3 4 5 4 6 7 4 3 3 9 13 7 12 15 14 12 13 16 16 14 15 15 15 15 15 14 14 15 16 16 19 25 29 32 35 37 39 39 39 38 39 39 39 39 40 40 40 40 39
16 15 11 11 12 12 8 5 3 4 5 7 4 3 4 5 5 3 6 8 6 5 4 9 14 10 11 15 15 13 15 18 16 14 15 16 16 15 14 15 14 14 16 16 19 25 29 32 35 37 38 38 37 37 38 39 40 41 41 40 40 39 39
13 12 9 8 8 10 10 7 6 4 4 6 6 5 4 4 4 3 6 7 5 5 5 10 15 13 12 15 15 14 16 18 17 15 15 16 16 15 14 15 15 15 16 18 22 28 30 32 34 35 36 36 36 37 37 38 39 40 40 39 39 38 39
11 9 8 9 8 8 9 8 10 8 4 3 5 6 5 5 4 3 5 5 5 5 5 7 10 12 14 15 16 15 16 19 18 16 17 16 16 16 16 16 16 16 16 17 23 29 31 31 32 33 35 36 36 36 36 37 38 38 39 39 39 38 38
7 8 10 14 14 11 10 9 11 10 6 4 4 5 7 7 6 6 5 4 6 6 5 7 8 10 12 13 13 12 14 19 17 15 18 20 18 18 18 18 17 16 15 15 20 26 28 29 31 34 36 36 36 36 36 37 37 38 39 40 40 39 38
7 8 11 18 19 16 12 11 11 9 7 6 5 5 5 6 5 5 5 5 5 6 6 7 9 9 10 13 13 11 12 16 15 14 17 19 20 20 19 18 15 14 14 14 16 21 24 27 32 35 36 36 37 37 37 36 36 37 39 39 39 39 38
8 10 8 15 21 17 12 11 11 10 8 8 7 5 4 4 5 5 5 5 5 5 6 5 6 6 6 11 16 15 14 13 13 14 16 16 17 17 15 14 12 12 12 13 14 16 19 23 29 33 35 36 37 38 38 38 37 38 38 38 38 38 38
6 8 7 8 16 15 9 8 11 12 13 11 9 7 4 4 6 8 6 5 5 6 7 11 11 7 3 4 10 13 12 11 11 12 14 16 16 14 14 14 14 13 13 13 14 14 16 21 25 29 33 34 36 37 38 37 37 37 38 37 37 38 38
8 9 7 4 8 10 8 9 12 14 16 15 10 6 6 6 7 8 7 5 6 6 11 18 19 12 8 5 5 9 9 9 10 8 12 16 15 13 15 15 14 14 14 15 15 14 15 21 24 26 29 31 33 35 37 37 36 37 37 37 37 38 38
8 8 7 4 5 7 10 13 15 14 15 15 11 6 7 6 4 5 6 6 6 6 10 17 19 16 12 7 6 9 8 8 9 7 10 15 14 12 15 15 14 15 15 15 16 14 15 20 24 26 28 30 32 33 35 36 36 36 37 37 37 37 38
12 9 8 9 9 9 12 16 17 16 15 14 11 9 9 6 4 7 8 5 4 7 7 10 13 13 10 7 7 9 8 7 8 8 10 15 16 15 16 15 15 15 14 14 15 13 14 18 22 25 28 31 32 33 35 35 36 36 37 37 37 37 38
17 14 12 12 12 11 11 15 18 17 17 17 15 13 10 8 6 9 9 6 6 7 6 6 8 7 7 6 6 7 7 9 9 8 10 13 16 16 16 15 14 13 13 13 13 13 13 16 19 22 25 29 31 32 34 36 37 37 37 37 38 37 38
17 18 17 17 15 14 12 13 17 19 18 19 18 14 11 9 9 9 9 9 10 7 6 9 8 7 6 4 2 2 4 7 11 11 10 11 13 15 15 14 14 14 14 14 13 14 13 14 17 21 24 28 31 32 34 36 37 38 38 38 38 38 38
10 17 19 19 19 16 14 12 12 16 18 18 18 16 13 10 9 8 9 10 9 6 6 10 11 6 4 2 4 2 1 4 10 12 12 11 11 11 12 12 11 11 12 12 12 13 14 15 19 22 25 28 31 32 33 36 37 38 39 39 39 39 39
3 7 13 20 20 17 17 18 14 13 14 13 13 15 14 12 10 9 8 8 7 6 6 8 10 6 3 3 6 6 3 3 8 10 12 13 13 12 12 13 14 14 14 14 14 15 15 17 22 25 26 28 29 31 34 37 38 38 38 39 39 39 39
2 5 8 15 18 15 15 16 13 10 8 6 6 9 14 15 14 9 7 7 6 6 7 7 9 9 8 7 6 7 7 7 7 9 11 12 15 16 16 16 17 17 16 15 16 17 17 19 25 30 30 29 30 34 37 38 38 37 37 38 39 39 39
3 6 8 7 9 11 10 9 9 11 12 8 7 6 7 9 9 8 7 7 6 5 6 7 7 9 11 9 6 6 8 8 8 9 10 10 11 14 16 17 17 15 14 13 15 18 22 27 33 35 35 35 36 38 37 36 38 38 37 37 38 39 40
3 4 4 5 6 7 3 4 9 10 11 11 11 11 9 7 7 4 3 4 4 4 4 2 1 3 8 7 5 5 7 8 8 8 8 7 8 9 12 14 15 15 15 14 13 16 23 30 32 32 33 35 35 35 35 35 38 39 38 36 38 39 40
2 2 4 5 5 4 5 1 2 1 3 6 8 8 9 7 3 3 4 3 2 5 7 7 7 5 4 3 3 5 5 7 7 7 7 7 6 8 11 13 15 15 16 17 17 20 25 28 28 29 32 34 32 32 34 35 37 38 36 35 37 38 39
4 4 4 5 5 5 5 3 1 2 2 2 4 3 3 7 7 7 6 6 6 6 6 7 7 7 7 6 6 6 5 4 6 6 7 7 6 6 9 12 13 14 16 19 22 25 27 26 27 29 32 33 31 31 32 33 33 35 33 33 35 38 38
5 5 3 4 7 6 5 3 1 2 6 8 7 6 4 5 6 5 7 8 8 7 7 7 6 7 7 4 6 9 11 9 8 7 7 8 8 7 8 11 12 14 18 20 22 24 25 26 30 33 33 33 31 29 30 31 31 31 31 31 35 37 37
6 6 6 6 7 5 4 4 2 1 4 8 8 5 2 3 5 5 8 8 9 8 7 7 6 7 5 3 5 8 12 12 10 8 10 10 9 9 8 10 13 16 23 27 27 26 24 26 31 34 33 34 32 29 30 32 31 29 30 32 34 37 38
5 4 3 4 4 2 4 5 5 4 3 7 8 3 4 3 4 6 9 9 9 8 7 7 7 6 3 3 6 8 11 11 9 7 7 9 9 9 8 9 14 21 26 24 21 22 24 29 34 35 35 34 30 29 32 31 30 30 33 34 35 36 36
3 4 2 3 3 2 2 2 3 5 5 6 4 5 5 1 5 7 9 9 8 7 7 6 5 4 4 5 6 9 12 12 12 10 7 5 4 4 6 8 8 13 21 23 22 25 30 34 36 36 36 32 28 29 30 28 29 35 36 34 34 35 35
2 4 1 1 3 3 0 2 2 2 4 3 3 4 3 4 7 8 9 9 7 7 7 6 5 4 7 9 9 11 13 13 13 14 12 9 6 3 4 8 11 6 9 18 23 28 33 36 37 37 35 31 27 27 26 26 31 35 34 33 34 34 35
0 2 2 2 1 5 2 3 2 3 1 5 4 3 4 5 7 8 8 9 8 6 7 7 7 7 8 9 9 9 10 11 12 14 14 15 14 11 8 9 11 11 6 6 15 26 32 33 35 37 34 28 25 24 23 27 31 32 32 34 35 34 34
3 1 1 1 3 4 2 3 3 2 2 3 3 5 6 6 6 7 8 8 8 8 8 9 8 9 9 8 8 8 9 10 11 12 14 15 15 13 12 13 18 18 12 11 10 12 24 26 26 29 28 23 20 20 21 26 30 31 32 34 34 32 33
1 2 4 10 12 4 5 6 5 6 6 6 7 8 8 7 7 7 7 8 9 9 9 9 9 9 8 8 8 8 8 9 10 10 11 12 12 12 11 13 19 21 18 21 27 20 8 19 22 23 24 22 18 18 23 29 31 32 33 33 32 31 31
4 3 4 11 15 5 8 8 6 8 9 8 9 10 10 9 9 9 8 8 10 10 9 9 9 7 7 7 8 8 8 9 10 10 11 12 12 13 13 13 14 17 19 21 23 25 16 3 14 16 20 23 21 21 27 32 33 33 34 32 31 30 30
5 4 5 10 14 9 10 10 10 12 13 12 12 11 10 11 11 11 11 10 11 11 11 11 10 9 9 9 8 8 9 10 10 11 12 12 11 11 13 15 13 10 11 13 13 14 20 17 12 12 9 9 16 23 29 32 34 35 34 33 31 31 31
1 2 7 12 11 9 13 11 10 11 12 14 15 12 11 13 13 13 12 11 11 11 11 10 10 12 13 12 10 9 9 8 9 9 10 11 11 12 15 19 18 9 7 9 10 8 11 17 15 18 18 11 7 17 26 33 37 37 35 34 33 31 32
3 4 8 12 9 8 14 12 10 10 10 13 15 13 13 15 14 14 13 12 12 12 11 10 11 13 13 12 12 11 10 9 9 8 8 9 10 12 15 19 19 14 7 8 9 10 10 7 8 17 23 17 11 12 17 27 35 35 33 34 33 32 31
4 3 6 8 6 5 7 9 9 9 9 13 14 13 13 14 12 11 12 12 12 13 12 11 12 12 11 11 12 12 12 12 10 8 7 7 8 11 15 17 18 17 12 8 7 8 12 12 9 12 21 24 20 16 15 20 29 32 30 29 29 30 30
3 3 3 5 4 3 5 8 9 8 8 12 14 13 13 12 10 10 11 11 11 12 11 11 11 11 11 11 12 13 13 13 13 11 10 9 8 10 13 13 13 15 15 13 10 8 8 11 11 12 18 25 26 21 18 21 27 30 28 26 25 25 26
5 4 4 3 1 3 6 8 9 9 9 10 13 12 11 11 10 10 10 10 10 9 10 10 10 10 11 11 11 12 12 13 14 13 14 13 12 9 10 12 11 13 15 13 12 9 4 7 13 15 20 24 25 23 22 23 25 27 28 27 24 24 25
5 5 4 2 3 4 4 6 8 10 10 10 10 10 9 10 10 9 9 9 8 8 10 10 10 11 11 10 10 10 10 11 14 15 16 16 15 13 9 13 15 15 13 9 6 6 5 4 13 21 24 25 24 23 23 24 24 25 26 27 26 27 27
Wind_Direction
222 209 183 197 215 211 190 201 217 216 190 192 213 236 253 239 230 238 231 234 217 191 230 252 252 207 178 188 189 187 180 170 172 175 178 182 182 181 179 178 181 184 186 187 185 183 181 182 184 186 188 188 187 187 187 189 190 192 194 196 197 199 199
216 218 199 199 211 208 186 204 207 193 224 233 205 215 243 236 236 234 231 239 224 192 215 238 243 211 167 182 184 176 168 160 165 174 177 179 179 180 183 181 181 183 186 188 186 186 184 184 186 188 188 188 188 188 188 188 189 191 194 196 198 199 199
202 210 214 206 209 209 212 231 189 160 222 227 207 217 211 210 234 242 241 244 218 202 201 206 223 213 167 176 181 173 168 164 167 173 178 180 178 181 186 187 188 187 188 188 186 187 187 186 188 188 188 187 189 190 190 190 191 193 195 196 198 200 200
187 191 211 205 196 198 211 242 243 223 220 197 193 215 206 188 218 228 236 247 235 222 204 191 207 208 183 180 182 179 173 171 172 172 177 180 178 183 189 190 193 193 192 190 187 187 187 187 186 186 185 187 189 190 190 191 192 194 195 197 198 199 200
193 189 198 190 178 183 195 215 230 232 233 203 189 201 207 190 191 222 233 241 246 245 224 203 205 206 202 192 182 181 178 176 178 176 177 181 182 186 190 191 194 194 194 192 189 189 187 183 182 183 185 187 189 190 191 191 192 192 194 197 198 199 200
219 203 186 180 180 186 189 199 221 226 218 219 214 213 215 200 195 216 220 233 254 253 238 234 228 211 205 198 186 181 178 178 181 181 180 181 184 188 190 192 192 189 189 189 188 188 184 178 178 182 185 187 188 190 192 192 192 193 195 197 198 199 199
252 231 190 178 181 189 192 195 212 222 215 208 215 221 210 203 212 219 219 238 253 251 240 238 242 227 198 186 182 177 178 181 179 181 184 183 185 189 190 190 187 183 184 184 183 186 184 180 180 182 183 186 188 190 191 192 193 195 196 197 198 199 199
277 271 226 183 180 186 197 199 198 210 221 215 219 228 194 189 211 207 224 245 229 235 255 256 259 252 203 182 182 179 181 184 176 174 182 185 185 187 185 181 179 180 180 178 179 184 188 187 184 181 182 185 187 188 189 192 194 195 196 197 198 199 200
253 271 265 200 185 186 195 199 190 199 215 218 225 236 218 214 223 206 204 236 224 212 241 263 277 290 289 192 180 175 177 187 189 175 172 180 183 179 177 175 176 176 175 179 184 186 189 189 186 183 183 184 185 187 189 191 193 195 196 197 198 199 201
210 226 239 204 185 189 192 193 191 195 207 214 218 227 227 228 233 223 205 220 242 206 205 238 259 270 276 270 196 176 170 179 195 179 159 173 180 176 175 173 172 176 178 183 187 186 186 187 185 184 183 183 185 187 189 190 192 194 195 196 197 199 201
206 219 228 214 189 193 190 189 195 198 204 212 208 205 227 218 205 241 230 199 231 232 202 220 241 247 248 250 204 184 168 164 181 170 158 170 174 172 174 170 170 177 181 184 183 181 183 184 184 183 182 183 184 186 188 190 191 193 195 196 197 199 200
207 216 231 232 226 218 197 185 192 201 206 215 216 212 220 204 185 250 250 191 207 255 235 218 232 245 242 219 197 189 163 149 165 164 165 172 170 171 174 172 173 176 179 182 182 178 179 181 182 183 183 184 185 185 187 188 189 192 194 195 196 198 199
211 220 235 238 238 243 222 192 188 196 203 211 221 227 215 189 200 237 236 207 214 244 255 232 221 231 233 209 204 209 177 146 142 148 161 168 168 170 174 172 172 177 180 182 185 183 180 180 181 181 183 184 184 185 186 187 188 191 192 194 196 197 199
208 216 232 243 247 252 247 214 193 194 203 207 214 230 230 213 221 231 219 216 223 220 239 258 243 207 196 176 141 232 221 150 138 147 155 163 169 172 177 179 176 179 182 182 186 186 183 183 184 183 183 184 184 185 186 187 189 191 191 193 195 196 198
207 206 217 234 246 252 256 251 219 200 201 203 204 215 228 235 239 234 218 223 241 229 213 248 256 213 165 138 117 131 272 121 133 150 156 160 169 170 175 182 180 179 183 184 187 187 185 187 187 186 186 186 185 185 186 188 190 190 191 192 194 196 198
233 209 213 222 232 246 254 255 248 222 205 203 204 201 205 218 228 234 228 223 247 251 212 233 256 239 201 201 165 160 203 170 148 158 159 159 167 172 175 182 183 183 186 186 185 187 190 189 188 188 187 185 185 186 187 189 190 190 192 193 194 195 197
259 278 254 224 215 227 243 244 247 250 238 234 233 207 197 203 210 217 222 215 217 217 198 211 237 243 249 245 197 177 199 202 185 183 181 177 177 177 178 182 186 186 186 186 186 187 189 188 189 190 187 184 187 190 190 190 189 190 193 193 193 194 196
186 254 281 268 217 218 234 227 224 244 252 254 264 254 218 208 213 207 199 207 210 190 190 208 219 229 239 238 210 181 180 189 198 194 193 196 193 188 185 182 183 184 185 186 188 189 189 189 191 191 188 188 191 192 190 188 187 190 193 193 192 193 194
142 213 257 280 248 236 244 179 189 218 241 244 252 265 272 272 269 255 186 191 193 138 125 106 25 269 247 226 203 193 173 168 174 177 189 200 190 186 189 187 185 187 187 187 190 193 192 192 192 189 188 190 191 189 187 186 188 191 192 191 191 192 193
155 171 206 231 249 295 327 314 162 191 278 251 240 260 290 313 353 61 75 77 79 93 93 75 53 21 325 295 246 235 213 188 170 166 187 203 193 186 192 195 196 194 190 188 188 192 195 195 192 189 189 190 187 184 186 187 188 191 192 190 190 190 191
180 179 209 255 286 297 281 271 19 68 102 136 148 146 4 16 56 90 91 62 43 46 56 55 55 51 31 3 331 324 316 263 232 208 192 196 208 206 195 198 204 200 195 196 194 192 192 192 192 192 191 189 185 183 185 186 188 190 190 190 190 190 191
178 181 193 245 260 252 235 238 327 118 122 115 113 110 75 16 17 66 90 73 56 46 34 30 45 56 45 360 313 335 352 342 309 283 258 235 230 228 206 194 197 195 192 197 202 198 193 192 194 194 191 186 183 184 185 186 187 188 190 192 190 189 189
169 190 200 216 230 222 202 204 194 104 104 104 96 83 70 316 338 35 77 74 63 55 28 15 45 64 47 336 303 330 346 346 341 333 319 302 282 263 230 196 190 195 195 196 200 200 197 197 197 195 189 186 184 184 187 187 186 188 192 192 190 187 186
141 164 207 235 236 202 197 193 157 128 97 91 98 150 228 259 346 34 64 66 60 59 43 29 48 64 43 317 309 333 342 336 331 332 322 309 302 295 273 233 210 203 198 197 198 198 198 199 198 193 189 187 187 187 187 186 186 190 193 192 188 185 181
135 137 204 251 236 194 194 196 154 135 110 85 110 198 214 130 50 50 61 66 59 54 58 58 52 33 3 340 333 347 358 354 341 331 320 299 283 294 309 309 276 218 203 202 202 199 199 199 197 192 188 188 191 190 186 185 189 191 190 187 182 177 173
157 147 184 283 305 302 193 114 43 58 109 136 183 189 159 86 77 68 58 59 54 49 59 65 57 33 18 15 9 4 8 9 357 347 348 351 340 337 26 17 1 328 228 209 203 201 200 198 194 191 189 189 190 188 184 188 192 188 181 177 173 170 167
226 147 139 121 266 286 261 143 80 10 92 190 183 127 94 77 75 73 62 54 45 44 53 50 41 38 33 27 20 11 9 11 3 355 357 355 345 344 10 29 22 10 341 245 211 200 197 197 194 190 187 187 185 184 185 187 185 179 171 168 167 165 162
14 10 7 353 279 286 359 109 135 100 114 167 139 101 89 73 66 69 67 54 40 42 54 51 38 31 28 21 17 14 12 11 5 0 2 360 352 350 358 13 24 26 15 345 310 222 190 184 189 188 183 181 180 179 180 176 171 166 164 162 160 158 157
351 245 298 312 302 301 86 93 121 113 91 80 87 89 84 72 65 66 68 58 47 46 54 56 46 32 21 14 14 12 12 14 11 6 8 4 355 353 354 5 24 36 38 19 354 327 237 173 175 186 182 177 176 171 167 163 159 158 157 155 153 152 151
352 309 302 307 303 316 91 90 87 90 82 71 74 79 79 75 70 69 70 67 60 56 58 61 53 36 24 22 19 13 10 14 15 13 16 12 4 6 2 354 11 38 51 42 9 332 311 163 151 172 178 174 169 161 157 155 153 152 151 149 146 144 141
1 337 319 305 307 344 53 65 63 68 74 75 71 71 76 79 75 71 69 69 67 63 60 59 54 41 34 30 27 23 18 17 17 16 17 15 10 16 13 354 353 30 59 58 38 353 339 358 50 92 111 139 149 148 148 147 146 146 144 140 137 135 133
1 299 292 287 297 10 45 51 55 61 71 77 75 73 76 75 72 68 63 59 61 59 55 54 54 47 39 32 29 29 23 18 20 18 18 19 16 22 23 8 356 8 68 80 79 67 9 359 30 76 78 60 100 135 141 142 140 138 136 133 131 129 128
311 282 284 284 295 21 40 40 43 50 61 73 75 74 73 71 70 66 62 57 56 53 47 44 48 48 42 35 32 31 26 19 19 19 18 24 26 25 25 17 3 359 36 78 83 97 98 63 63 96 98 88 81 100 122 133 133 130 128 129 127 124 123
269 245 276 293 305 3 27 27 33 42 57 70 72 70 67 68 69 71 70 65 59 55 49 43 46 48 42 32 30 34 29 18 16 21 19 19 33 37 32 27 15 4 8 41 59 80 100 98 85 88 94 94 92 88 91 108 116 117 118 119 119 119 122
250 195 251 292 309 349 10 18 27 35 49 66 71 68 67 68 67 68 72 68 60 56 51 45 47 50 42 32 31 34 32 23 19 24 23 14 24 43 43 35 17 358 355 8 19 26 62 79 73 70 83 95 102 103 100 106 113 118 120 119 118 120 126
266 204 208 256 328 28 16 21 32 34 40 59 69 66 65 68 66 64 67 67 62 61 55 45 44 48 46 42 38 35 34 31 27 27 28 22 12 21 49 57 35 1 354 1 4 355 14 102 108 99 95 102 112 119 123 127 130 131 130 127 124 126 131
258 204 172 140 101 76 39 31 40 39 38 50 61 60 61 65 66 64 65 64 63 65 62 50 39 37 41 44 42 37 36 36 34 31 30 26 15 8 37 76 73 48 27 21 18 360 354 92 116 112 108 112 120 126 132 138 140 137 134 132 132 135 138